Location: Cheust
(43.0517°N, 0.0151°E)
Time: 01:52:38
(UTC+00:00)

Daily predictions for brighter satellites

Satellite Brightness Start Highest point End
(mag) Time Altitude Azimuth Time Altitude Azimuth Time Altitude Azimuth
Resurs 1-4 Rocket 4.4 01:50:37 10° N 01:51:57 18° N 01:51:57 18° N
CZ-2D R/B 4.4 01:53:50 10° N 01:55:14 19° N 01:55:14 19° N
SJ 16-02 4.5 02:02:53 10° NNE 02:02:59 10° NNE 02:02:59 10° NNE
Lacrosse 5 4.1 02:13:50 22° NNE 02:13:50 22° NNE 02:15:43 10° NE
ARIANE 5 R/B 4.1 02:22:19 10° NNE 02:25:30 31° ENE 02:25:30 31° ENE
NOSS 3-3 (A) 4.5 02:34:42 53° ENE 02:34:42 53° ENE 02:39:57 10° NE
NOSS 3-3 (C) 4.5 02:34:49 53° ENE 02:34:49 53° ENE 02:40:02 10° NE
USA 267 3.5 02:28:17 10° NE 02:34:08 59° ESE 02:34:08 59° ESE
ADEOS II 3.4 02:42:32 10° N 02:45:20 32° N 02:45:20 32° N
ATLAS 2AS CENTAUR R/B 4.4 02:42:28 10° NNW 02:49:05 31° NE 02:55:16 10° E
IDEFIX/ARIANE 42P 3.3 02:46:27 10° NNE 02:51:13 51° E 02:51:13 51° E
BREEZE-M DEB (TANK) 4.2 02:51:06 63° S 02:51:57 67° SE 03:12:11 10° ENE
Cosmos 1697 Rocket 4.1 02:56:36 27° NNW 02:56:36 27° NNW 02:59:45 10° N
Cosmos 1980 Rocket 3.0 03:02:24 43° NNW 03:02:24 43° NNW 03:06:32 10° NNE
Cosmos 2263 Rocket 2.2 03:00:14 10° NNW 03:05:55 75° ENE 03:11:36 10° SSE
USA 234 4.0 03:02:58 10° ESE 03:09:12 50° NNE 03:15:28 10° NW
Cosmos 2322 Rocket 3.1 03:08:23 37° SE 03:09:49 45° ESE 03:15:12 10° NE
Cosmos 1666 4.4 03:13:54 10° NNE 03:17:21 32° ENE 03:18:11 28° ESE
CZ-2D R/B 4.5 03:14:44 10° NNE 03:17:38 43° NNE 03:17:38 43° NNE
Cosmos 1812 4.3 03:21:35 32° NNE 03:21:35 32° NNE 03:23:46 10° NNE
SL-16 R/B 2.4 03:20:04 57° SSE 03:21:03 68° ESE 03:26:42 10° NNE
Cosmos 1934 Rocket 4.2 03:16:04 10° NNW 03:20:55 51° NW 03:20:55 51° NW
CZ-3B R/B 3.7 03:21:32 25° NNW 03:22:02 26° N 03:28:27 10° NE
Cosmos 1238 Rocket 4.1 03:24:23 10° NNW 03:30:02 52° WNW 03:30:02 52° WNW
Spot 4 Rocket 3.8 03:28:55 10° N 03:34:04 73° WNW 03:34:17 72° W
Cosmos 1898 Rocket 3.6 03:29:17 10° NNW 03:34:33 77° ENE 03:39:51 10° SSE
CZ-2C R/B 3.7 03:29:46 10° NNE 03:34:40 42° E 03:39:34 10° SSE
ASTEX 1 4.0 03:34:48 10° N 03:38:38 42° NW 03:38:38 42° NW
Cosmos 1869 Rocket 4.2 03:37:50 10° NNW 03:40:47 42° NNW 03:40:47 42° NNW
MSX 3.7 03:37:51 10° NNE 03:43:39 80° WNW 03:45:54 39° SSW
Landsat 5 3.7 03:41:47 10° SSE 03:46:17 80° ENE 03:50:45 10° N
IRIDIUM 104 4.2 03:41:21 10° N 03:46:37 84° W 03:50:24 19° S
Cosmos 2228 Rocket 4.2 03:48:02 30° NW 03:48:02 30° NW 03:50:47 10° N
PSLV R/B 4.1 03:44:21 10° NNE 03:48:29 54° E 03:51:00 22° S
Meteor 1-5 Rocket 4.1 03:48:09 10° NNW 03:53:22 56° W 03:56:00 29° SSW
CZ-4C R/B 3.9 03:55:01 38° NNW 03:55:01 38° NNW 03:57:18 10° NNW
Cosmos 1153 Rocket 4.4 03:48:06 10° N 03:54:30 81° W 04:00:47 10° S
Cosmos 1605 Rocket 4.1 03:48:34 10° NNW 03:54:45 53° W 03:58:55 21° SSW
Lacrosse 5 3.7 03:53:01 16° NW 03:54:50 19° NNW 03:58:27 10° NNE
Gbstr 26 Del rocket 4.3 03:49:31 21° WNW 03:55:13 68° SW 04:02:22 10° SE
Cosmos 1937 Rocket 3.4 03:50:28 10° NNW 03:55:38 84° ENE 04:00:47 10° SSE
IRIDIUM 114 4.2 03:50:32 10° N 03:55:44 70° W 03:59:31 19° S
H-2A R/B 2.0 03:52:26 10° SSE 03:56:50 82° WSW 04:01:20 10° NNW
ERBS 4.2 03:58:34 20° NNW 03:58:34 20° NNW 04:00:41 10° NNE
Meteor 1-10 Rocket 4.3 03:56:19 38° SW 03:58:22 58° WNW 04:04:11 10° N
X-37B 1.9 03:59:50 31° SSE 03:59:50 31° SSE 04:01:46 10° SE
Cosmos 841 Rocket 3.7 03:56:29 20° S 04:00:08 71° ESE 04:05:23 10° NNE
FALCON 9 DEB 3.7 04:01:05 45° NNW 04:01:05 45° NNW 04:04:13 10° NE
CSL-04 DEB 4.4 03:56:41 10° S 04:01:00 75° WSW 04:05:23 10° NNW
ERS-2 2.6 03:58:30 10° SSE 04:02:06 61° ENE 04:05:44 10° N
USA 32 3.9 03:58:13 10° N 04:03:30 85° W 04:08:45 10° S
Cosmos 1814 Rocket 4.4 03:59:35 12° S 04:04:23 61° ESE 04:09:35 10° NNE
SL-4 R/B 2.5 04:03:35 45° W 04:04:43 61° NNW 04:09:27 10° NE
IRIDIUM 103 4.3 03:59:45 10° N 04:04:52 57° W 04:08:38 18° SSW
ARIANE 5 R/B 3.6 04:01:49 10° N 04:05:49 26° WNW 04:05:49 26° WNW
Cosmos 1763 Rocket 3.7 04:04:26 39° WSW 04:06:05 54° WNW 04:11:17 10° NNE
Cosmos 2333 Rocket 4.2 04:02:27 10° SSE 04:07:17 28° ESE 04:12:07 10° NE
CZ-2C R/B 3.4 04:04:53 10° N 04:08:05 38° WNW 04:08:05 38° WNW
NOSS 3-4 (A) 3.9 04:09:54 10° NW 04:17:01 89° SW 04:24:52 10° SSE
NOSS 3-4 (C) 3.9 04:10:01 10° NW 04:17:07 89° SW 04:24:58 10° SSE
USA 267 3.7 04:11:26 10° NE 04:17:39 48° NNW 04:21:28 23° W
CZ-4B R/B 2.1 04:18:46 10° SSE 04:21:52 53° ENE 04:25:04 10° N
Cosmos 540 Rocket 3.4 04:20:36 17° SSW 04:24:33 71° WNW 04:29:45 10° NNE
ADEOS Rocket 3.0 04:19:22 10° SSE 04:26:07 84° WSW 04:32:12 10° NNW
ADEOS 3.9 04:20:56 10° NNE 04:26:09 67° ESE 04:31:19 10° S
IDEFIX/ARIANE 42P 3.8 04:26:51 10° NNW 04:30:49 22° WNW 04:32:01 20° W
PAYLOAD A 4.0 04:27:00 10° N 04:31:33 50° WNW 04:35:28 14° SW
Cosmos 1727 Rocket 4.4 04:26:59 15° SW 04:31:56 42° WNW 04:37:54 10° N
Cosmos 2100 Rocket 4.0 04:27:40 10° NNW 04:34:00 65° W 04:40:15 10° S
Cosmos 2360 Rocket 2.2 04:29:26 12° SSW 04:34:42 72° WNW 04:40:23 10° NNE
Cosmos 1570 Rocket 4.1 04:31:43 14° SW 04:36:15 58° WNW 04:41:33 10° NNE
FENGYUN 3A 4.1 04:31:57 10° NNE 04:37:21 67° ESE 04:42:43 10° S
deb Chang Zheng 4 3.5 04:34:26 10° NNE 04:38:44 85° ESE 04:43:00 10° SSW
SAR-Lupe-4 3.7 04:35:26 10° SSE 04:39:00 75° ENE 04:42:36 10° N
ATLAS 2AS CENTAUR R/B 2.7 04:33:23 10° NW 04:40:49 77° WSW 04:47:37 10° SSE
Cosmos 1459 Rocket 3.9 04:34:56 10° NNW 04:40:56 61° W 04:46:51 10° S
Cosmos 1802 Rocket 3.9 04:36:48 10° NNW 04:43:00 73° W 04:49:15 10° S
Cosmos 1484 Rocket 2.9 04:39:54 10° NNE 04:43:55 80° E 04:47:56 10° S
Cosmos 44 Rocket 3.6 04:42:19 18° WSW 04:45:31 46° NW 04:50:14 10° NNE
Cosmos 1908 Rocket 4.0 04:41:51 10° N 04:46:20 67° E 04:50:46 10° SSE
Cosmos 1980 Rocket 4.3 04:45:07 10° NW 04:46:21 11° NW 04:47:33 10° NNW
Cosmos 1703 Rocket 4.4 04:42:26 10° S 04:46:38 53° E 04:50:53 10° NNE
Cosmos 2263 Rocket 3.6 04:45:53 10° WNW 04:49:47 15° WSW 04:52:23 10° SW
Okean 1 3.3 04:45:26 10° S 04:49:29 87° W 04:53:33 10° N
Meteor 1-11 Rocket 4.5 04:45:45 10° NNW 04:50:36 29° W 04:55:22 10° SSW
Okean 1-7 3.8 04:47:43 10° S 04:51:52 55° E 04:56:01 10° NNE
USA 234 3.3 04:45:44 10° SSE 04:52:08 58° SW 04:58:35 10° NW
Cosmos 1666 4.2 04:50:11 10° NW 04:52:38 17° W 04:52:52 16° W
Cosmos 1515 3.8 04:48:57 10° S 04:52:43 76° E 04:56:31 10° NNE
Cosmos 2123 Rocket 4.0 04:47:14 10° S 04:53:29 81° W 04:59:50 10° N
Cosmos 2322 Rocket 3.1 04:50:14 15° WSW 04:54:01 30° NW 04:59:00 10° N
Cosmos 1844 Rocket 2.6 04:48:51 10° NNW 04:54:28 69° WSW 05:00:05 10° SSE
BREEZE M DEB (TANK) 4.1 04:45:14 10° WNW 04:54:31 33° WSW 04:58:06 10° S
Meteor 1-31 Rocket 2.7 04:52:36 10° NNE 04:56:28 90° ESE 05:00:20 10° SSW
Cosmos 2278 Rocket 4.3 04:51:39 10° N 04:56:29 28° NE 05:01:18 10° ESE
SAR-Lupe-1 4.0 04:54:28 10° S 04:58:00 67° WSW 05:01:35 10° NNW
Cosmos 1844 3.6 04:54:27 10° NNW 05:00:02 77° WSW 05:05:34 10° SSE
Cosmos 1437 Rocket 2.8 04:56:34 10° SSW 05:00:15 51° WNW 05:04:02 10° N
USA 276 2.5 04:57:50 10° WNW 05:01:02 65° NNE 05:04:14 10° ESE
SL-16 R/B 3.6 05:01:59 12° W 05:05:42 21° NW 05:09:58 10° N
Cosmos 1536 4.2 05:03:00 10° NW 05:05:50 18° W 05:08:39 10° SW
Meteor 2-9 Rocket 4.3 05:00:43 10° N 05:06:13 82° E 05:11:34 10° SSE
CZ-4B R/B 2.9 05:05:35 10° NNE 05:09:12 70° ESE 05:12:45 10° S
Cosmos 372 Rocket 4.3 05:04:51 10° NNW 05:09:43 44° WSW 05:14:31 10° S
Cosmos 1733 Rocket 4.0 05:06:13 10° NW 05:09:45 25° W 05:13:14 10° SW
CZ-2C R/B 3.5 05:08:25 10° N 05:12:39 26° WNW 05:16:55 10° WSW
CZ-4B R/B 4.2 05:08:44 10° N 05:13:04 61° WNW 05:17:28 10° SSW
Cosmos 2242 Rocket 3.6 05:09:44 10° SSW 05:14:03 56° W 05:18:24 10° N
Cosmos 1689 Rocket 2.0 05:11:50 10° S 05:14:45 66° WSW 05:17:44 10° NNW
Intercosmos 25 3.8 05:11:40 10° SW 05:15:11 33° W 05:18:09 10° NNW
SKYMED 2 3.6 05:12:34 10° SSE 05:16:54 88° W 05:21:17 10° NNW
ALOS 2.5 05:12:44 10° N 05:17:16 50° WNW 05:21:45 10° SSW
Cosmos 2219 Rocket 2.2 05:17:33 10° SSW 05:23:13 79° WNW 05:28:57 10° NNE
Cosmos 2285 Rocket 4.3 05:17:14 10° NNW 05:23:42 79° ENE 05:30:08 10° SSE
Meteor 2-4 Rocket 3.9 05:19:32 10° S 05:24:59 80° E 05:30:23 10° NNE
Cosmos 2298 Rocket 4.3 05:21:30 10° NNW 05:26:35 47° WSW 05:31:38 10° S
CZ-4C R/B 3.2 05:21:31 10° NW 05:28:53 83° NE 05:37:18 10° SE
